K5BV Weather Reports


Display with metric or nautical units.
time (UTC)temp
F
wind
direction
speed
MPH
gust
MPH
rain 1hr
in
rain 24hr
in
rain mn
in
humidity
%
barometer
mb
20181018111305 60 334 8.0 16.0 0.00 0.00 0.00 97 1022.2
20181018110305 59 332 7.0 15.0 0.00 0.00 0.00 97 1022.3
20181018105305 60 343 7.0 14.0 0.00 0.00 0.00 97 1022.3
20181018104305 60 329 7.0 15.0 0.00 0.00 0.00 97 1022.2
20181018103306 60 331 7.0 14.0 0.00 0.00 0.00 97 1022.2
20181018102305 60 327 5.0 14.0 0.00 0.00 0.00 98 1022.1
20181018101305 60 321 7.0 16.0 0.00 0.00 0.00 98 1022.0
20181018100305 60 321 7.0 14.0 0.00 0.00 0.00 98 1022.0
20181018095307 60 340 7.0 14.0 0.00 0.00 0.00 98 1022.1
20181018094306 61 326 6.0 14.0 0.00 0.00 0.00 98 1022.0
20181018093306 60 344 8.0 15.0 0.00 0.00 0.00 98 1021.9
20181018092306 61 339 6.0 15.0 0.00 0.00 0.00 98 1021.9
20181018091305 60 337 10.0 15.0 0.00 0.00 0.00 98 1021.8
20181018090305 60 338 9.0 15.0 0.00 0.00 0.00 98 1021.8
20181018085305 61 337 7.0 14.0 0.00 0.00 0.00 98 1021.6
20181018084305 60 331 9.0 16.0 0.00 0.00 0.00 97 1021.6
20181018083306 61 328 7.0 13.0 0.00 0.00 0.00 97 1021.7
20181018082305 61 349 9.0 15.0 0.00 0.00 0.00 97 1022.0
20181018081305 61 332 7.0 14.0 0.00 0.00 0.00 97 1022.2
20181018080305 61 346 7.0 13.0 0.00 0.00 0.00 97 1022.5
20181018075307 62 358 5.0 17.0 0.00 0.00 0.00 97 1022.7
20181018074305 61 357 10.0 17.0 0.00 0.00 0.00 97 1022.5
20181018073304 62 17 7.0 17.0 0.00 0.00 0.00 97 1022.6
20181018071305 62 0 9.0 16.0 0.00 0.00 0.00 97 1022.6
20181018070304 62 336 6.0 13.0 0.00 0.00 0.00 97 1022.5
20181018065305 62 343 7.0 15.0 0.00 0.00 0.00 97 1022.7
20181018064305 62 1 9.0 16.0 0.00 0.00 0.00 97 1022.9
20181018063305 62 350 5.0 15.0 0.00 0.00 0.00 97 1023.0
20181018062305 62 0 9.0 17.0 0.00 0.00 0.00 97 1023.1
20181018061305 62 348 8.0 15.0 0.00 0.00 0.00 97 1023.0
20181018060305 62 356 7.0 17.0 0.00 0.00 0.00 97 1023.2
20181018054305 62 0 6.0 14.0 0.00 0.00 0.00 97 1023.2
20181018053304 63 326 6.0 15.0 0.00 0.00 0.00 97 1023.2
20181018052305 62 5 8.0 15.0 0.00 0.00 0.00 97 1023.2
20181018051305 63 354 6.0 17.0 0.00 0.00 0.00 96 1023.2
20181018050306 62 349 8.0 17.0 0.00 0.00 0.00 96 1023.2
20181018045306 62 355 8.0 16.0 0.00 0.00 0.00 96 1023.1
20181018044305 62 336 8.0 16.0 0.00 0.00 0.00 96 1023.1
20181018043305 62 353 9.0 16.0 0.00 0.00 0.00 96 1023.4
20181018042305 62 348 9.0 17.0 0.00 0.00 0.00 96 1023.4
20181018041305 62 11 10.0 17.0 0.00 0.00 0.00 96 1023.4
20181018040304 62 354 7.0 14.0 0.00 0.00 0.00 96 1023.4
20181018035305 62 337 6.0 15.0 0.00 0.00 0.00 96 1023.5
20181018032306 62 353 6.0 13.0 0.00 0.00 0.00 96 1023.6
20181018031306 62 325 7.0 13.0 0.00 0.00 0.00 96 1023.4
20181018030305 62 330 7.0 14.0 0.00 0.00 0.00 96 1023.4
20181018024306 62 322 6.0 12.0 0.00 0.00 0.00 96 1023.4
20181018023307 62 339 6.0 12.0 0.00 0.00 0.00 96 1023.5
20181018022306 62 339 6.0 14.0 0.00 0.00 0.00 96 1023.3
20181018020306 62 329 7.0 12.0 0.00 0.00 0.00 96 1023.4
20181018015305 62 335 7.0 18.0 0.00 0.00 0.00 95 1023.2
20181018014306 62 325 8.0 16.0 0.00 0.00 0.00 95 1023.0
20181018013305 62 329 7.0 15.0 0.00 0.00 0.00 95 1023.0
20181018012306 62 327 7.0 14.0 0.00 0.00 0.00 95 1022.9
20181018011305 62 317 7.0 16.0 0.00 0.00 0.00 95 1022.8
20181018010306 62 329 7.0 15.0 0.00 0.00 0.00 95 1022.6
20181018005306 62 312 7.0 14.0 0.00 0.00 0.00 94 1022.7
20181018004307 62 337 7.0 15.0 0.00 0.00 0.00 94 1022.5
20181018003306 62 320 5.0 10.0 0.00 0.00 0.00 94 1022.4
20181018002306 62 328 7.0 14.0 0.00 0.00 0.00 94 1022.2
20181018001305 62 315 6.0 14.0 0.00 0.00 0.00 93 1022.1
20181018000305 62 321 9.0 14.0 0.00 0.00 0.00 93 1022.0
20181017235306 63 331 5.0 12.0 0.00 0.00 0.00 93 1022.0
20181017234306 62 340 7.0 15.0 0.00 0.00 0.00 92 1022.1
20181017233306 62 325 7.0 16.0 0.00 0.00 0.00 92 1021.8
20181017232306 62 327 7.0 15.0 0.00 0.00 0.00 92 1021.7
20181017231305 62 314 9.0 17.0 0.00 0.00 0.00 92 1021.7
20181017230306 63 319 7.0 16.0 0.00 0.00 0.00 92 1021.7
20181017224305 63 313 7.0 18.0 0.00 0.00 0.00 91 1021.4
20181017222306 63 322 10.0 15.0 0.00 0.00 0.00 91 1021.4
20181017221305 63 331 7.0 15.0 0.00 0.00 0.00 91 1021.6
20181017220306 63 326 8.0 15.0 0.00 0.00 0.00 91 1021.6
20181017214308 62 308 7.0 15.0 0.00 0.00 0.00 91 1021.6
20181017213305 63 325 8.0 14.0 0.00 0.00 0.00 91 1021.7
20181017211305 62 322 8.0 14.0 0.00 0.00 0.00 90 1021.8
20181017210305 62 325 9.0 14.0 0.00 0.00 0.00 90 1021.8
20181017205305 63 323 7.0 14.0 0.00 0.00 0.00 90 1021.6
20181017204306 63 346 7.0 15.0 0.00 0.00 0.00 90 1021.7
20181017203306 63 343 5.0 15.0 0.00 0.00 0.00 89 1021.7
20181017202306 63 308 8.0 17.0 0.00 0.00 0.00 89 1021.4
20181017201306 62 320 9.0 17.0 0.00 0.00 0.00 89 1021.4
20181017195306 62 308 7.0 14.0 0.00 0.00 0.00 89 1021.9
20181017194306 62 313 9.0 15.0 0.00 0.00 0.00 89 1021.9
20181017193305 62 302 10.0 17.0 0.00 0.00 0.00 88 1021.7
20181017192305 63 318 7.0 14.0 0.00 0.00 0.00 88 1022.0
20181017191306 63 331 8.0 16.0 0.00 0.00 0.00 88 1021.9
20181017190306 63 320 10.0 18.0 0.00 0.00 0.00 89 1021.9
20181017185305 62 316 9.0 17.0 0.00 0.00 0.00 90 1022.3
20181017184305 61 300 11.0 18.0 0.00 0.00 0.00 89 1022.5
20181017182306 62 310 9.0 17.0 0.00 0.00 0.00 90 1022.5
20181017181305 61 316 10.0 18.0 0.00 0.00 0.00 89 1022.6
20181017180305 61 315 10.0 16.0 0.00 0.00 0.00 89 1022.9
20181017175305 61 317 11.0 21.0 0.00 0.00 0.00 90 1022.9
20181017174306 61 319 10.0 17.0 0.00 0.00 0.00 89 1023.0
20181017173305 60 302 10.0 16.0 0.00 0.00 0.00 92 1023.2
20181017172305 60 313 9.0 16.0 0.00 0.00 0.00 92 1023.6
20181017170305 59 299 10.0 18.0 0.00 0.00 0.00 94 1023.6
20181017165306 58 312 10.0 16.0 0.00 0.00 0.00 95 1023.6
20181017164305 58 312 9.0 15.0 0.00 0.00 0.00 95 1023.7
20181017163305 58 314 9.0 16.0 0.00 0.00 0.00 95 1023.6
20181017162305 58 300 10.0 15.0 0.00 0.00 0.00 96 1023.8
20181017161306 58 315 6.0 10.0 0.00 0.00 0.00 96 1024.2
20181017154305 57 327 8.0 14.0 0.00 0.00 0.00 96 1024.1
20181017153305 57 310 9.0 16.0 0.00 0.00 0.00 96 1023.9
20181017152305 57 300 11.0 17.0 0.00 0.00 0.00 96 1024.0
20181017151305 56 304 10.0 16.0 0.00 0.00 0.00 97 1024.0
20181017150305 57 308 7.0 14.0 0.00 0.00 0.00 97 1024.0
20181017145305 56 320 7.0 14.0 0.00 0.00 0.00 97 1024.0
20181017143305 56 321 9.0 15.0 0.00 0.00 0.00 97 1024.0
20181017142306 56 315 8.0 17.0 0.00 0.00 0.00 97 1023.8
20181017141307 56 304 9.0 17.0 0.00 0.00 0.00 97 1023.6
20181017140305 56 314 9.0 15.0 0.00 0.00 0.00 97 1023.6
20181017135306 57 325 6.0 13.0 0.00 0.00 0.00 97 1023.7
20181017134306 56 328 7.0 13.0 0.00 0.00 0.00 97 1023.6
20181017133305 56 311 6.0 15.0 0.00 0.00 0.00 97 1023.2
20181017132305 56 322 7.0 14.0 0.00 0.00 0.00 97 1023.2
20181017131305 56 311 10.0 16.0 0.00 0.00 0.00 97 1023.0
20181017130305 56 327 6.0 13.0 0.00 0.00 0.00 97 1022.9
20181017125305 56 335 7.0 13.0 0.00 0.00 0.00 97 1022.9
20181017124305 56 323 7.0 15.0 0.00 0.00 0.00 97 1022.7
20181017123307 56 318 9.0 15.0 0.00 0.00 0.00 97 1022.5
20181017122305 55 309 8.0 15.0 0.00 0.00 0.00 97 1022.5
20181017121305 55 312 9.0 13.0 0.00 0.00 0.00 97 1022.6
20181017120305 56 319 5.0 10.0 0.00 0.00 0.00 97 1022.4
20181017115305 55 338 6.0 12.0 0.00 0.00 0.00 97 1022.2
20181017114307 55 309 7.0 15.0 0.00 0.00 0.00 97 1022.0
20181017113305 55 302 9.0 16.0 0.00 0.00 0.00 97 1021.7
20181017112305 55 312 7.0 15.0 0.00 0.00 0.00 97 1021.6